Watertown, MA (02471)

2:46 AM EDT on August 05, 2015 (GMT -0400)
Watertown Center | | Change Station
CLOSE
Current Station
Personal Weather Station
Location: Watertown, MA
Elevation: 62 ft
Nearby Weather Stations

Elev 62 ft 42.37 °N, 71.18 °W | Updated 6 minutes ago

Partly Cloudy
Partly Cloudy
66.7 °F
Feels Like 66.7 °F
N
0.0
Wind Variable Wind from SSW

Today
High -- | Low -- °F
--% Chance of Precip.
Yesterday
High -- | Low -- °F
Precip. -- in
5:41 AM 7:59 PM
Waning Gibbous, 70% visible
Pressure 29.90 in
Visibility 4.0 miles
Clouds Scattered Clouds 9500 ft
Dew Point 66 °F
Humidity 97%
Rainfall 0.00 in
Snow Depth Not available.
UV 0 out of 12
Pollen 5.70 out of 12
Air Quality Not available.
Flu Activity Not available.
METAR KBED 050556Z 00000KT 4SM BR SCT095 17/16 A2987 RMK AO2 SLP125 T01720161 10200 20172 58001

More Conditions Fewer Conditions

Pressure 29.90 in
Visibility 4.0 miles
Clouds Scattered Clouds 9500 ft
Dew Point 66 °F
Humidity 97%
Rainfall 0.00 in
Snow Depth Not available.
UV 0 out of 12
Pollen 5.70 out of 12
Air Quality Not available.
Flu Activity Not available.
METAR KBED 050556Z 00000KT 4SM BR SCT095 17/16 A2987 RMK AO2 SLP125 T01720161 10200 20172 58001

More Conditions Fewer Conditions

10-Day Weather Forecast

×

Almanac

Astronomy

Aug. 05, 2015 Rise Set
Actual Time
Civil Twilight
Nautical Twilight
Astronomical Twilight
Moon
Length of Visible Light
Length of Day
Tomorrow will be .
, % of the Moon is Illuminated

Today's Extremes

State Highs State Lows

Community

WunderPhotos

Upload Photos

1,844,105 photos uploaded!

WunderBlogs® & News

Nearby

Air Quality

  Air Quality AQ Index Pollutant
Not available.

Snow Depth

Station Depth Elevation

Earthquake Activity

City Distance Mag. Time & Date
Minimum magnitude displayed is 2.5.

Coastal Water Temperatures

Place Temperature

Stations

Nearby Weather Stations

Station Location Temp. Windchill Dew Point Humidity Wind Precip. Elev Updated Type